Time,TemperatureF,DewpointF,PressureIn,WindDirection,WindDirectionDegrees,WindSpeedMPH,WindSpeedGustMPH,Humidity,HourlyPrecipIn,Conditions,Clouds,dailyrainin,SoftwareType,DateUTC
2014-09-16 00:24:00,52.0,-99.9,-100.00,North,-999,-999.0,-999.0,-999,0.00,,,0.43,,2014-09-16 04:24:00,
2014-09-16 00:30:00,51.0,-99.9,-100.00,North,-999,-999.0,-999.0,-999,0.00,,,0.43,,2014-09-16 04:30:00,
2014-09-16 00:34:00,52.0,-99.9,-100.00,North,-999,-999.0,-999.0,-999,0.00,,,0.43,,2014-09-16 04:34:00,
2014-09-16 00:44:00,52.0,-99.9,-100.00,North,-999,-999.0,-999.0,-999,0.00,,,0.43,,2014-09-16 04:44:00,
2014-09-16 01:13:00,51.0,-99.9,-100.00,North,-999,-999.0,-999.0,-999,0.00,,,0.43,,2014-09-16 05:13:00,
2014-09-16 01:23:00,51.0,-99.9,-100.00,North,-999,-999.0,-999.0,-999,0.00,,,0.43,,2014-09-16 05:23:00,
2014-09-16 01:30:00,52.0,-99.9,-100.00,North,-999,-999.0,-999.0,-999,0.00,,,0.43,,2014-09-16 05:30:00,
2014-09-16 02:13:00,52.0,-99.9,-100.00,North,-999,-999.0,-999.0,-999,0.00,,,0.43,,2014-09-16 06:13:00,
2014-09-16 02:23:00,52.0,-99.9,-100.00,North,-999,-999.0,-999.0,-999,0.00,,,0.43,,2014-09-16 06:23:00,
2014-09-16 02:30:00,51.0,-99.9,-100.00,North,-999,-999.0,-999.0,-999,0.00,,,0.43,,2014-09-16 06:30:00,
2014-09-16 03:12:00,51.0,-99.9,-100.00,North,-999,-999.0,-999.0,-999,0.00,,,0.43,,2014-09-16 07:12:00,
2014-09-16 03:22:00,51.0,-99.9,-100.00,North,-999,-999.0,-999.0,-999,0.00,,,0.43,,2014-09-16 07:22:00,
2014-09-16 03:30:00,51.0,-99.9,-100.00,North,-999,-999.0,-999.0,-999,0.02,,,0.45,,2014-09-16 07:30:00,
2014-09-16 04:13:00,51.0,-99.9,-100.00,North,-999,-999.0,-999.0,-999,0.02,,,0.45,,2014-09-16 08:13:00,
2014-09-16 04:22:00,51.0,-99.9,-100.00,North,-999,-999.0,-999.0,-999,0.02,,,0.45,,2014-09-16 08:22:00,
2014-09-16 04:30:00,51.0,-99.9,-100.00,North,-999,-999.0,-999.0,-999,0.03,,,0.48,,2014-09-16 08:30:00,
2014-09-16 05:13:00,51.0,-99.9,-100.00,North,-999,-999.0,-999.0,-999,0.03,,,0.48,,2014-09-16 09:13:00,
2014-09-16 05:23:00,51.0,-99.9,-100.00,North,-999,-999.0,-999.0,-999,0.03,,,0.48,,2014-09-16 09:23:00,
2014-09-16 06:24:00,51.0,-99.9,-100.00,North,-999,-999.0,-999.0,-999,0.01,,,0.50,,2014-09-16 10:24:00,
2014-09-16 06:30:00,51.0,-99.9,-100.00,North,-999,-999.0,-999.0,-999,0.01,,,0.51,,2014-09-16 10:30:00,
2014-09-16 06:33:00,51.0,-99.9,-100.00,North,-999,-999.0,-999.0,-999,0.01,,,0.50,,2014-09-16 10:33:00,
2014-09-16 06:44:00,51.0,-99.9,-100.00,North,-999,-999.0,-999.0,-999,0.01,,,0.50,,2014-09-16 10:44:00,
2014-09-16 07:13:00,51.0,-99.9,-100.00,North,-999,-999.0,-999.0,-999,0.01,,,0.51,,2014-09-16 11:13:00,
2014-09-16 07:23:00,51.0,-99.9,-100.00,North,-999,-999.0,-999.0,-999,0.01,,,0.51,,2014-09-16 11:23:00,
2014-09-16 07:30:00,51.0,-99.9,-100.00,North,-999,-999.0,-999.0,-999,0.04,,,0.55,,2014-09-16 11:30:00,
2014-09-16 08:13:00,51.0,-99.9,-100.00,North,-999,-999.0,-999.0,-999,0.04,,,0.55,,2014-09-16 12:13:00,
2014-09-16 08:22:00,51.0,-99.9,-100.00,North,-999,-999.0,-999.0,-999,0.04,,,0.55,,2014-09-16 12:22:00,
2014-09-16 08:30:00,52.0,-99.9,-100.00,North,-999,-999.0,-999.0,-999,0.01,,,0.56,,2014-09-16 12:30:00,
2014-09-16 09:12:00,52.0,-99.9,-100.00,North,-999,-999.0,-999.0,-999,0.01,,,0.56,,2014-09-16 13:12:00,
2014-09-16 09:22:00,52.0,-99.9,-100.00,North,-999,-999.0,-999.0,-999,0.01,,,0.56,,2014-09-16 13:22:00,
2014-09-16 09:30:00,52.0,-99.9,-100.00,North,-999,-999.0,-999.0,-999,0.01,,,0.57,,2014-09-16 13:30:00,
2014-09-16 10:12:00,52.0,-99.9,-100.00,North,-999,-999.0,-999.0,-999,0.01,,,0.57,,2014-09-16 14:12:00,
2014-09-16 10:23:00,52.0,-99.9,-100.00,North,-999,-999.0,-999.0,-999,0.01,,,0.57,,2014-09-16 14:23:00,
2014-09-16 10:30:00,52.0,-99.9,-100.00,North,-999,-999.0,-999.0,-999,0.00,,,0.57,,2014-09-16 14:30:00,
2014-09-16 11:12:00,52.0,-99.9,-100.00,North,-999,-999.0,-999.0,-999,0.00,,,0.57,,2014-09-16 15:12:00,
2014-09-16 11:22:00,52.0,-99.9,-100.00,North,-999,-999.0,-999.0,-999,0.00,,,0.57,,2014-09-16 15:22:00,
2014-09-16 12:23:00,54.0,-99.9,-100.00,North,-999,-999.0,-999.0,-999,0.00,,,0.57,,2014-09-16 16:23:00,
2014-09-16 12:30:00,58.0,-99.9,-100.00,North,-999,-999.0,-999.0,-999,0.00,,,0.14,,2014-09-16 16:30:00,
2014-09-16 12:34:00,54.0,-99.9,-100.00,North,-999,-999.0,-999.0,-999,0.00,,,0.57,,2014-09-16 16:34:00,
2014-09-16 12:44:00,54.0,-99.9,-100.00,North,-999,-999.0,-999.0,-999,0.00,,,0.57,,2014-09-16 16:44:00,
2014-09-16 13:13:00,58.0,-99.9,-100.00,North,-999,-999.0,-999.0,-999,0.00,,,0.14,,2014-09-16 17:13:00,
2014-09-16 13:24:00,58.0,-99.9,-100.00,North,-999,-999.0,-999.0,-999,0.00,,,0.14,,2014-09-16 17:24:00,
2014-09-16 13:30:00,61.0,-99.9,-100.00,North,-999,-999.0,-999.0,-999,0.00,,,0.14,,2014-09-16 17:30:00,
2014-09-16 14:13:00,61.0,-99.9,-100.00,North,-999,-999.0,-999.0,-999,0.00,,,0.14,,2014-09-16 18:13:00,
2014-09-16 14:24:00,61.0,-99.9,-100.00,North,-999,-999.0,-999.0,-999,0.00,,,0.14,,2014-09-16 18:24:00,
2014-09-16 14:30:00,60.0,-99.9,-100.00,North,-999,-999.0,-999.0,-999,0.00,,,0.14,,2014-09-16 18:30:00,
2014-09-16 15:12:00,60.0,-99.9,-100.00,North,-999,-999.0,-999.0,-999,0.00,,,0.14,,2014-09-16 19:12:00,
2014-09-16 15:22:00,60.0,-99.9,-100.00,North,-999,-999.0,-999.0,-999,0.00,,,0.14,,2014-09-16 19:22:00,
2014-09-16 15:30:00,62.0,-99.9,-100.00,North,-999,-999.0,-999.0,-999,0.00,,,0.14,,2014-09-16 19:30:00,
2014-09-16 16:13:00,62.0,-99.9,-100.00,North,-999,-999.0,-999.0,-999,0.00,,,0.14,,2014-09-16 20:13:00,
2014-09-16 16:23:00,62.0,-99.9,-100.00,North,-999,-999.0,-999.0,-999,0.00,,,0.14,,2014-09-16 20:23:00,